DAL4547 KLAX-KSFO

Flight info

Callsign DAL4547
Flight time 0h 55m
Altitude 26000
Route SUMMR2 STOKD SERFR SERFR4
Aircraft A20N/M-SDE2E3FGHIRWXY/LB1

Departure

Time 2026-05-06 05:42
Airport Los Angeles International Airport (KLAX)

Arrival

Time 2026-05-06 06:38
Airport San Francisco International Airport (KSFO)
Time Latitude Longitude Altitude Speed Heading
2026-05-06 05:20 33.94005 -118.40757 125 ft 0 kts 80°
2026-05-06 05:30 33.94006 -118.40749 125 ft 0 kts 80°
2026-05-06 05:30 33.94004 -118.40765 125 ft 1 kts 82°
2026-05-06 05:30 33.94003 -118.40768 125 ft 3 kts 81°
2026-05-06 05:30 33.94000 -118.40798 123 ft 5 kts 104°
2026-05-06 05:31 33.94019 -118.40823 124 ft 2 kts 181°
2026-05-06 05:31 33.94020 -118.40823 124 ft 0 kts 181°
2026-05-06 05:32 33.94016 -118.40823 124 ft 6 kts 175°
2026-05-06 05:32 33.93940 -118.40811 123 ft 14 kts 172°
2026-05-06 05:33 33.93882 -118.40784 122 ft 0 kts 116°
2026-05-06 05:33 33.93868 -118.40761 123 ft 0 kts 143°
2026-05-06 05:33 33.93828 -118.40705 125 ft 0 kts 91°
2026-05-06 05:33 33.93828 -118.40569 122 ft 24 kts 78°
2026-05-06 05:34 33.93833 -118.40449 125 ft 0 kts 65°
2026-05-06 05:34 33.93849 -118.40363 123 ft 4 kts 94°
2026-05-06 05:35 33.93861 -118.40162 124 ft 33 kts 81°
2026-05-06 05:35 33.93897 -118.39880 121 ft 35 kts 82°
2026-05-06 05:35 33.93916 -118.39601 125 ft 32 kts 76°
2026-05-06 05:35 33.93931 -118.39451 124 ft 16 kts 98°
2026-05-06 05:36 33.93944 -118.39397 124 ft 0 kts 61°
2026-05-06 05:36 33.93958 -118.39297 125 ft 18 kts 85°
2026-05-06 05:36 33.93970 -118.39133 124 ft 21 kts 84°
2026-05-06 05:36 33.93985 -118.38948 122 ft 23 kts 85°
2026-05-06 05:37 33.94006 -118.38755 125 ft 24 kts 74°
2026-05-06 05:37 33.94018 -118.38611 122 ft 16 kts 89°
2026-05-06 05:37 33.94032 -118.38492 125 ft 12 kts 85°
2026-05-06 05:37 33.94040 -118.38377 120 ft 15 kts 85°
2026-05-06 05:38 33.94051 -118.38241 125 ft 17 kts 85°
2026-05-06 05:38 33.94060 -118.38110 125 ft 0 kts 85°
2026-05-06 05:40 33.94061 -118.38097 125 ft 15 kts 85°
2026-05-06 05:41 33.94053 -118.38033 123 ft 7 kts 127°
2026-05-06 05:41 33.94037 -118.38018 125 ft 0 kts 155°
2026-05-06 05:41 33.94021 -118.38014 123 ft 2 kts 178°
2026-05-06 05:41 33.93985 -118.38043 124 ft 11 kts 236°
2026-05-06 05:42 33.93964 -118.38337 122 ft 79 kts 264°
2026-05-06 05:42 33.93839 -118.39304 121 ft 147 kts 267°
2026-05-06 05:42 33.93782 -118.40733 520 ft 176 kts 265°
2026-05-06 05:42 33.93642 -118.42165 1421 ft 174 kts 262°
2026-05-06 05:43 33.93431 -118.43664 2205 ft 190 kts 259°
2026-05-06 05:43 33.93137 -118.45250 2928 ft 203 kts 256°
2026-05-06 05:43 33.92832 -118.47098 3156 ft 242 kts 264°
2026-05-06 05:43 33.92710 -118.49198 3773 ft 258 kts 267°
2026-05-06 05:44 33.92616 -118.51377 4158 ft 262 kts 266°
2026-05-06 05:44 33.92497 -118.53574 4410 ft 263 kts 265°
2026-05-06 05:44 33.92346 -118.55773 4661 ft 264 kts 265°
2026-05-06 05:44 33.92176 -118.57981 4913 ft 265 kts 264°
2026-05-06 05:45 33.91995 -118.60197 5158 ft 266 kts 264°
2026-05-06 05:45 33.91810 -118.62414 5401 ft 267 kts 265°
2026-05-06 05:45 33.91763 -118.64656 5664 ft 268 kts 270°
2026-05-06 05:45 33.91762 -118.66907 5915 ft 269 kts 270°
2026-05-06 05:46 33.91756 -118.69166 6165 ft 270 kts 270°
2026-05-06 05:46 33.91748 -118.71431 6414 ft 271 kts 270°
2026-05-06 05:46 33.91739 -118.73707 6679 ft 272 kts 270°
2026-05-06 05:46 33.91729 -118.75988 6956 ft 273 kts 270°
2026-05-06 05:47 33.91719 -118.78279 7230 ft 274 kts 270°
2026-05-06 05:47 33.91709 -118.80585 7502 ft 275 kts 270°
2026-05-06 05:47 33.91698 -118.82897 7777 ft 277 kts 270°
2026-05-06 05:47 33.91709 -118.85214 8050 ft 278 kts 271°
2026-05-06 05:48 33.91780 -118.87543 8342 ft 279 kts 272°
2026-05-06 05:48 33.91867 -118.89882 8609 ft 280 kts 272°
2026-05-06 05:48 33.91951 -118.92226 8879 ft 281 kts 272°
2026-05-06 05:48 33.92026 -118.94479 9147 ft 282 kts 272°
2026-05-06 05:49 33.92099 -118.96842 9421 ft 283 kts 272°
2026-05-06 05:49 33.92169 -118.99219 9706 ft 284 kts 272°
2026-05-06 05:49 33.92483 -119.01574 10086 ft 291 kts 287°
2026-05-06 05:49 33.93334 -119.03842 10470 ft 313 kts 301°
2026-05-06 05:50 33.94533 -119.06129 10867 ft 332 kts 302°
2026-05-06 05:50 33.95777 -119.08507 11236 ft 337 kts 302°
2026-05-06 05:50 33.97024 -119.10907 11606 ft 339 kts 302°
2026-05-06 05:50 33.98275 -119.13327 11979 ft 341 kts 302°
2026-05-06 05:51 33.99531 -119.15760 12361 ft 343 kts 302°
2026-05-06 05:51 34.00961 -119.18065 12739 ft 345 kts 311°
2026-05-06 05:51 34.02696 -119.20063 13114 ft 347 kts 321°
2026-05-06 05:51 34.04663 -119.21777 13492 ft 350 kts 324°
2026-05-06 05:52 34.06655 -119.23475 13868 ft 351 kts 324°
2026-05-06 05:52 34.08653 -119.25191 14244 ft 353 kts 324°
2026-05-06 05:53 34.14511 -119.30237 15340 ft 359 kts 324°
2026-05-06 05:53 34.16550 -119.31995 15712 ft 361 kts 324°
2026-05-06 05:53 34.18602 -119.33764 16087 ft 363 kts 324°
2026-05-06 05:53 34.20666 -119.35544 16471 ft 365 kts 324°
2026-05-06 05:54 34.22737 -119.37332 16840 ft 367 kts 324°
2026-05-06 05:54 34.24821 -119.39132 17213 ft 369 kts 324°
2026-05-06 05:54 34.26919 -119.40946 17592 ft 372 kts 324°
2026-05-06 05:54 34.29025 -119.42767 17966 ft 374 kts 324°
2026-05-06 05:55 34.31146 -119.44602 18336 ft 376 kts 324°
2026-05-06 05:55 34.33276 -119.46447 18721 ft 378 kts 324°
2026-05-06 05:55 34.35394 -119.48282 19090 ft 380 kts 324°
2026-05-06 05:55 34.37578 -119.50175 19472 ft 382 kts 324°
2026-05-06 05:56 34.39744 -119.52055 19848 ft 384 kts 323°
2026-05-06 05:56 34.41789 -119.54080 20218 ft 386 kts 316°
2026-05-06 05:56 34.43688 -119.56405 20596 ft 390 kts 314°
2026-05-06 05:56 34.45594 -119.58759 20972 ft 393 kts 314°
2026-05-06 05:57 34.47522 -119.61127 21354 ft 398 kts 314°
2026-05-06 05:57 34.49475 -119.63524 21727 ft 400 kts 314°
2026-05-06 05:57 34.51435 -119.65932 21846 ft 401 kts 314°
2026-05-06 05:57 34.53384 -119.68331 21947 ft 399 kts 314°
2026-05-06 05:58 34.55340 -119.70741 21997 ft 402 kts 314°
2026-05-06 05:58 34.57299 -119.73157 21999 ft 402 kts 314°
2026-05-06 05:58 34.59256 -119.75573 21999 ft 401 kts 314°
2026-05-06 05:58 34.61218 -119.77997 22001 ft 403 kts 314°
2026-05-06 05:59 34.63177 -119.80420 22001 ft 400 kts 314°
2026-05-06 05:59 34.65128 -119.82833 21999 ft 402 kts 314°
2026-05-06 05:59 34.67089 -119.85261 21998 ft 402 kts 314°
2026-05-06 05:59 34.69049 -119.87689 22001 ft 403 kts 314°
2026-05-06 06:00 34.71009 -119.90119 21998 ft 403 kts 314°
2026-05-06 06:00 34.72970 -119.92552 22000 ft 402 kts 314°
2026-05-06 06:00 34.74928 -119.94983 21999 ft 402 kts 314°
2026-05-06 06:00 34.76882 -119.97411 22000 ft 401 kts 314°
2026-05-06 06:01 34.78749 -119.99732 21999 ft 402 kts 314°
2026-05-06 06:01 34.80698 -120.02157 22000 ft 400 kts 314°
2026-05-06 06:01 34.82639 -120.04574 22000 ft 402 kts 314°
2026-05-06 06:01 34.84594 -120.07010 21999 ft 400 kts 314°
2026-05-06 06:02 34.86534 -120.09428 22003 ft 399 kts 314°
2026-05-06 06:02 34.88480 -120.11856 21999 ft 401 kts 314°
2026-05-06 06:02 34.90421 -120.14280 21999 ft 399 kts 314°
2026-05-06 06:02 34.92361 -120.16704 22005 ft 400 kts 314°
2026-05-06 06:03 34.94307 -120.19139 21999 ft 401 kts 314°
2026-05-06 06:03 34.96249 -120.21569 21999 ft 400 kts 314°
2026-05-06 06:03 34.97532 -120.23175 21999 ft 400 kts 314°
2026-05-06 06:03 34.99464 -120.25601 21999 ft 401 kts 316°
2026-05-06 06:04 35.01460 -120.27986 22003 ft 399 kts 314°
2026-05-06 06:04 35.03405 -120.30392 22001 ft 398 kts 314°
2026-05-06 06:04 35.05375 -120.32771 22000 ft 399 kts 315°
2026-05-06 06:04 35.07374 -120.35112 22001 ft 398 kts 316°
2026-05-06 06:05 35.09395 -120.37431 22004 ft 398 kts 316°
2026-05-06 06:05 35.11424 -120.39737 21998 ft 399 kts 317°
2026-05-06 06:05 35.13458 -120.42040 22001 ft 399 kts 317°
2026-05-06 06:05 35.15496 -120.44347 21998 ft 399 kts 317°
2026-05-06 06:06 35.17530 -120.46653 22004 ft 399 kts 317°
2026-05-06 06:06 35.19567 -120.48964 22000 ft 398 kts 317°
2026-05-06 06:06 35.21588 -120.51271 22000 ft 399 kts 319°
2026-05-06 06:06 35.23704 -120.53490 22004 ft 400 kts 318°
2026-05-06 06:07 35.25795 -120.55738 22002 ft 400 kts 319°
2026-05-06 06:07 35.27908 -120.57956 21998 ft 401 kts 320°
2026-05-06 06:07 35.30054 -120.60138 22001 ft 401 kts 320°
2026-05-06 06:07 35.32209 -120.62283 22000 ft 399 kts 321°
2026-05-06 06:08 35.34370 -120.64413 21999 ft 400 kts 321°
2026-05-06 06:08 35.36546 -120.66550 22000 ft 402 kts 321°
2026-05-06 06:08 35.38725 -120.68691 21999 ft 400 kts 321°
2026-05-06 06:08 35.40896 -120.70826 22002 ft 400 kts 321°
2026-05-06 06:09 35.43066 -120.72962 22000 ft 400 kts 321°
2026-05-06 06:09 35.45237 -120.75101 22000 ft 400 kts 321°
2026-05-06 06:09 35.47400 -120.77234 22000 ft 399 kts 321°
2026-05-06 06:09 35.49564 -120.79371 21998 ft 400 kts 321°
2026-05-06 06:10 35.51704 -120.81484 22000 ft 400 kts 321°
2026-05-06 06:10 35.53899 -120.83654 21998 ft 400 kts 321°
2026-05-06 06:10 35.56034 -120.85766 22000 ft 400 kts 321°
2026-05-06 06:10 35.58202 -120.87912 22002 ft 400 kts 321°
2026-05-06 06:11 35.60367 -120.90056 21999 ft 401 kts 321°
2026-05-06 06:11 35.62536 -120.92207 22000 ft 400 kts 321°
2026-05-06 06:11 35.64729 -120.94382 22001 ft 400 kts 321°
2026-05-06 06:11 35.66863 -120.96500 21998 ft 399 kts 321°
2026-05-06 06:12 35.69024 -120.98647 22002 ft 400 kts 321°
2026-05-06 06:12 35.71185 -121.00796 21998 ft 399 kts 321°
2026-05-06 06:12 35.73345 -121.02945 21999 ft 399 kts 321°
2026-05-06 06:12 35.75505 -121.05095 21997 ft 399 kts 321°
2026-05-06 06:13 35.77664 -121.07246 22003 ft 400 kts 321°
2026-05-06 06:13 35.79824 -121.09400 22003 ft 399 kts 321°
2026-05-06 06:13 35.81980 -121.11550 21998 ft 399 kts 321°
2026-05-06 06:13 35.84140 -121.13708 21999 ft 400 kts 321°
2026-05-06 06:14 35.86300 -121.15865 22004 ft 400 kts 321°
2026-05-06 06:14 35.88459 -121.18024 21999 ft 399 kts 320°
2026-05-06 06:14 35.90616 -121.20182 21847 ft 400 kts 320°
2026-05-06 06:14 35.92775 -121.22345 21404 ft 400 kts 320°
2026-05-06 06:15 35.94930 -121.24504 20778 ft 398 kts 320°
2026-05-06 06:15 35.97068 -121.26648 20411 ft 389 kts 320°
2026-05-06 06:15 35.99150 -121.28737 20307 ft 386 kts 320°
2026-05-06 06:15 36.01251 -121.30847 20201 ft 391 kts 320°
2026-05-06 06:16 36.03356 -121.32963 20092 ft 390 kts 320°
2026-05-06 06:16 36.05458 -121.35077 20002 ft 389 kts 320°
2026-05-06 06:16 36.07611 -121.37082 20003 ft 387 kts 327°
2026-05-06 06:16 36.09897 -121.38854 20002 ft 389 kts 327°
2026-05-06 06:17 36.12193 -121.40635 20000 ft 390 kts 327°
2026-05-06 06:17 36.14495 -121.42429 20001 ft 392 kts 327°
2026-05-06 06:17 36.16774 -121.44208 19999 ft 382 kts 327°
2026-05-06 06:17 36.18996 -121.45943 20000 ft 375 kts 327°
2026-05-06 06:18 36.21203 -121.47669 20000 ft 376 kts 327°
2026-05-06 06:18 36.23415 -121.49399 20000 ft 375 kts 327°
2026-05-06 06:18 36.25618 -121.51123 20000 ft 375 kts 327°
2026-05-06 06:18 36.27836 -121.52860 20001 ft 379 kts 327°
2026-05-06 06:19 36.30067 -121.54609 20001 ft 379 kts 327°
2026-05-06 06:19 36.32262 -121.56330 20001 ft 379 kts 327°
2026-05-06 06:19 36.34490 -121.58078 20001 ft 378 kts 327°
2026-05-06 06:19 36.36708 -121.59819 20000 ft 376 kts 327°
2026-05-06 06:20 36.38917 -121.61554 20002 ft 375 kts 327°
2026-05-06 06:20 36.41122 -121.63288 20001 ft 375 kts 327°
2026-05-06 06:20 36.43329 -121.65024 20002 ft 376 kts 327°
2026-05-06 06:20 36.45532 -121.66759 20001 ft 374 kts 327°
2026-05-06 06:21 36.47730 -121.68491 20000 ft 374 kts 327°
2026-05-06 06:21 36.49932 -121.70226 19988 ft 376 kts 327°
2026-05-06 06:21 36.52144 -121.71972 19779 ft 376 kts 327°
2026-05-06 06:21 36.52532 -121.72278 19730 ft 375 kts 327°
2026-05-06 06:22 36.52595 -121.72329 19724 ft 375 kts 327°
2026-05-06 06:22 36.54790 -121.74064 19477 ft 371 kts 327°
2026-05-06 06:22 36.56960 -121.75780 19226 ft 368 kts 327°
2026-05-06 06:22 36.59122 -121.77490 18974 ft 368 kts 327°
2026-05-06 06:23 36.61278 -121.79198 18726 ft 367 kts 327°
2026-05-06 06:23 36.63430 -121.80903 18476 ft 365 kts 327°
2026-05-06 06:23 36.65570 -121.82600 18093 ft 365 kts 327°
2026-05-06 06:23 36.67704 -121.84293 17594 ft 362 kts 327°
2026-05-06 06:24 36.69822 -121.85974 17097 ft 359 kts 327°
2026-05-06 06:24 36.71923 -121.87636 16587 ft 356 kts 328°
2026-05-06 06:24 36.74117 -121.89040 16093 ft 354 kts 336°
2026-05-06 06:24 36.76430 -121.90039 15594 ft 351 kts 345°
2026-05-06 06:25 36.78805 -121.90710 15048 ft 350 kts 347°
2026-05-06 06:25 36.81206 -121.91373 14182 ft 357 kts 347°
2026-05-06 06:25 36.86179 -121.92770 12194 ft 375 kts 346°
2026-05-06 06:26 36.88755 -121.93505 11298 ft 380 kts 347°
2026-05-06 06:26 36.91269 -121.94206 11181 ft 361 kts 347°
2026-05-06 06:26 36.93664 -121.94872 11055 ft 345 kts 347°
2026-05-06 06:26 36.95950 -121.95593 10801 ft 334 kts 342°
2026-05-06 06:27 36.98174 -121.96473 10527 ft 337 kts 342°
2026-05-06 06:27 37.00409 -121.97346 10251 ft 336 kts 342°
2026-05-06 06:27 37.02628 -121.98208 9976 ft 333 kts 342°
2026-05-06 06:27 37.04837 -121.99067 9699 ft 330 kts 342°
2026-05-06 06:28 37.06998 -121.99909 9422 ft 321 kts 342°
2026-05-06 06:28 37.09103 -122.00730 9145 ft 313 kts 342°
2026-05-06 06:28 37.11157 -122.01532 8867 ft 305 kts 342°
2026-05-06 06:28 37.13158 -122.02315 8593 ft 298 kts 342°
2026-05-06 06:29 37.15110 -122.03078 8314 ft 291 kts 342°
2026-05-06 06:29 37.17019 -122.03825 8037 ft 284 kts 342°
2026-05-06 06:29 37.18844 -122.04539 7932 ft 272 kts 342°
2026-05-06 06:29 37.20627 -122.05238 7873 ft 269 kts 342°
2026-05-06 06:30 37.22426 -122.05944 7830 ft 272 kts 342°
2026-05-06 06:30 37.24233 -122.06653 7504 ft 273 kts 342°
2026-05-06 06:30 37.26054 -122.07368 7037 ft 276 kts 342°
2026-05-06 06:30 37.27896 -122.08091 6563 ft 278 kts 342°
2026-05-06 06:31 37.29744 -122.08818 6174 ft 276 kts 342°
2026-05-06 06:31 37.31535 -122.09523 6070 ft 264 kts 342°
2026-05-06 06:31 37.33264 -122.10205 5971 ft 261 kts 342°
2026-05-06 06:31 37.35007 -122.10892 5883 ft 261 kts 342°
2026-05-06 06:32 37.36733 -122.11573 5871 ft 260 kts 342°
2026-05-06 06:32 37.38461 -122.12246 5868 ft 261 kts 343°
2026-05-06 06:32 37.40210 -122.12858 5871 ft 261 kts 344°
2026-05-06 06:32 37.41970 -122.13445 5679 ft 265 kts 345°
2026-05-06 06:33 37.43761 -122.14041 5355 ft 265 kts 344°
2026-05-06 06:33 37.45558 -122.14646 4816 ft 271 kts 344°
2026-05-06 06:33 37.47410 -122.15260 4169 ft 279 kts 345°
2026-05-06 06:33 37.49320 -122.15885 3482 ft 288 kts 345°
2026-05-06 06:34 37.51291 -122.16530 2759 ft 297 kts 345°
2026-05-06 06:34 37.53149 -122.17587 2426 ft 289 kts 322°
2026-05-06 06:34 37.54631 -122.19249 1988 ft 281 kts 316°
2026-05-06 06:34 37.55986 -122.20893 1834 ft 258 kts 312°
2026-05-06 06:35 37.56897 -122.22684 1760 ft 233 kts 289°
2026-05-06 06:35 37.57318 -122.24653 1116 ft 236 kts 283°
2026-05-06 06:35 37.57687 -122.26649 531 ft 226 kts 283°
2026-05-06 06:35 37.58047 -122.28431 479 ft 184 kts 288°
2026-05-06 06:36 37.58512 -122.29664 730 ft 136 kts 304°
2026-05-06 06:36 37.59067 -122.30518 638 ft 119 kts 312°
2026-05-06 06:36 37.59585 -122.31312 399 ft 116 kts 301°
2026-05-06 06:36 37.59998 -122.32304 511 ft 125 kts 294°
2026-05-06 06:37 37.60325 -122.33231 411 ft 112 kts 294°
2026-05-06 06:37 37.60721 -122.34220 452 ft 144 kts 297°
2026-05-06 06:37 37.61169 -122.35304 156 ft 138 kts 297°
2026-05-06 06:37 37.61603 -122.36320 17 ft 124 kts 298°
2026-05-06 06:38 37.61918 -122.37068 15 ft 55 kts 297°
2026-05-06 06:38 37.61970 -122.37193 14 ft 1 kts 298°
2026-05-06 06:38 37.62027 -122.37331 17 ft 24 kts 297°
2026-05-06 06:38 37.62091 -122.37489 15 ft 26 kts 297°
2026-05-06 06:39 37.62137 -122.37611 18 ft 13 kts 290°
2026-05-06 06:39 37.62180 -122.37816 19 ft 40 kts 283°
2026-05-06 06:39 37.62222 -122.38119 23 ft 13 kts 276°
2026-05-06 06:39 37.62234 -122.38252 21 ft 18 kts 273°
2026-05-06 06:40 37.62223 -122.38426 20 ft 22 kts 263°
2026-05-06 06:40 37.62196 -122.38607 19 ft 19 kts 238°
2026-05-06 06:40 37.62138 -122.38749 13 ft 19 kts 247°
2026-05-06 06:40 37.62088 -122.38855 14 ft 0 kts 236°